EW6103 Weather Reports


time (UTC)temp
C
wind
direction
speed
KPH
gust
KPH
rain 1hr
cm
rain 24hr
cm
rain mn
cm
humidity
%
barometer
mb
20260906214008 8 270 0.0 0.0 0.00 0.00 0.00 90 1027.0
20260906213011 8 270 0.0 0.0 0.00 0.00 0.00 90 1027.0
20260906212008 8 270 0.0 0.0 0.00 0.00 0.00 89 1026.8
20260906211006 8 270 0.0 3.2 0.00 0.00 0.00 89 1026.9
20260906210010 8 45 0.0 1.6 0.00 0.00 0.00 88 1026.8
20260906205008 8 180 0.0 3.2 0.00 0.00 0.00 88 1026.9
20260906204007 8 0 0.0 1.6 0.00 0.00 0.00 88 1026.7
20260906203011 9 0 1.6 3.2 0.00 0.00 0.00 86 1026.7
20260906202008 9 0 0.0 1.6 0.00 0.00 0.00 86 1026.8
20260906201005 9 0 0.0 1.6 0.00 0.00 0.00 86 1026.8
20260906200010 10 0 1.6 3.2 0.00 0.00 0.00 84 1026.9
20260906195008 10 0 0.0 1.6 0.00 0.00 0.00 83 1026.8
20260906193012 10 0 0.0 0.0 0.00 0.00 0.00 81 1026.9
20260906192008 11 0 1.6 3.2 0.00 0.00 0.00 80 1026.8
20260906191009 11 0 1.6 3.2 0.00 0.00 0.00 81 1026.7
20260906190019 11 45 0.0 1.6 0.00 0.00 0.00 82 1026.8
20260906185010 11 45 0.0 1.6 0.00 0.00 0.00 80 1026.6
20260906184007 11 45 0.0 1.6 0.00 0.00 0.00 78 1026.6
20260906183009 12 0 0.0 1.6 0.00 0.00 0.00 78 1026.7
20260906182011 12 0 0.0 1.6 0.00 0.00 0.00 77 1026.4
20260906181005 12 0 0.0 1.6 0.00 0.00 0.00 77 1026.4
20260906175008 13 0 0.0 0.0 0.00 0.00 0.00 72 1026.1
20260906174008 14 0 1.6 4.8 0.00 0.00 0.00 70 1026.0
20260906173009 15 0 1.6 3.2 0.00 0.00 0.00 65 1025.9
20260906172009 16 0 1.6 3.2 0.00 0.00 0.00 62 1025.7
20260906170015 17 0 1.6 4.8 0.00 0.00 0.00 53 1025.5
20260906165006 17 135 0.0 3.2 0.00 0.00 0.00 54 1025.5
20260906164007 18 0 1.6 6.4 0.00 0.00 0.00 54 1025.3
20260906163008 18 135 3.2 6.4 0.00 0.00 0.00 54 1025.4
20260906162008 19 270 3.2 6.4 0.00 0.00 0.00 52 1025.3
20260906161006 19 270 4.8 6.4 0.00 0.00 0.00 51 1025.4
20260906160013 19 135 6.4 11.3 0.00 0.00 0.00 51 1025.4
20260906155006 19 135 4.8 11.3 0.00 0.00 0.00 50 1025.4
20260906154009 20 135 9.7 14.5 0.00 0.00 0.00 50 1025.3
20260906153008 20 135 6.4 12.9 0.00 0.00 0.00 48 1025.3
20260906152008 21 0 6.4 14.5 0.00 0.00 0.00 48 1025.2
20260906151010 21 225 12.9 19.3 0.00 0.00 0.00 47 1025.2
20260906150012 21 270 8.0 12.9 0.00 0.00 0.00 49 1025.2
20260906145006 21 270 11.3 17.7 0.00 0.00 0.00 45 1025.2
20260906144007 21 135 9.7 17.7 0.00 0.00 0.00 48 1025.3
20260906143008 20 270 6.4 14.5 0.00 0.00 0.00 50 1025.3
20260906142005 20 135 8.0 16.1 0.00 0.00 0.00 46 1025.3
20260906141008 21 135 8.0 17.7 0.00 0.00 0.00 46 1025.1
20260906135009 21 135 6.4 14.5 0.00 0.00 0.00 46 1025.1
20260906134007 21 135 9.7 16.1 0.00 0.00 0.00 50 1025.2
20260906133009 22 270 12.9 22.5 0.00 0.00 0.00 44 1025.1
20260906132007 20 270 6.4 12.9 0.00 0.00 0.00 47 1025.2
20260906131007 21 270 6.4 17.7 0.00 0.00 0.00 48 1025.3
20260906125009 21 135 11.3 14.5 0.00 0.00 0.00 45 1025.2
20260906124008 21 270 11.3 17.7 0.00 0.00 0.00 45 1025.3
20260906122009 20 135 9.7 19.3 0.00 0.00 0.00 51 1025.4
20260906121009 20 270 9.7 19.3 0.00 0.00 0.00 50 1025.4
20260906120010 21 135 12.9 17.7 0.00 0.00 0.00 49 1025.5
20260906115006 21 45 17.7 27.4 0.00 0.00 0.00 50 1025.6
20260906114006 19 135 11.3 19.3 0.00 0.00 0.00 51 1025.7
20260906113008 18 135 12.9 19.3 0.00 0.00 0.00 55 1025.9
20260906112006 19 135 9.7 17.7 0.00 0.00 0.00 53 1025.9
20260906110010 19 270 11.3 17.7 0.00 0.00 0.00 57 1025.9
20260906105006 19 135 6.4 17.7 0.00 0.00 0.00 51 1025.9
20260906104006 21 270 17.7 22.5 0.00 0.00 0.00 55 1025.7
20260906103007 20 135 12.9 20.9 0.00 0.00 0.00 51 1025.9
20260906102007 18 135 9.7 14.5 0.00 0.00 0.00 58 1026.1
20260906101009 19 135 8.0 17.7 0.00 0.00 0.00 54 1025.8
20260906100016 20 0 14.5 22.5 0.00 0.00 0.00 56 1025.8
20260906095007 19 270 8.0 17.7 0.00 0.00 0.00 58 1025.9
20260906093008 18 135 11.3 17.7 0.00 0.00 0.00 60 1026.0
20260906091008 17 135 8.0 16.1 0.00 0.00 0.00 61 1026.1
20260906090019 16 135 11.3 16.1 0.00 0.00 0.00 65 1026.3
20260906085010 16 135 6.4 9.7 0.00 0.00 0.00 64 1026.2
20260906084011 17 135 9.7 17.7 0.00 0.00 0.00 63 1025.9
20260906083015 16 135 6.4 12.9 0.00 0.00 0.00 67 1026.3
20260906082005 16 0 8.0 20.9 0.00 0.00 0.00 68 1026.1
20260906081009 16 135 6.4 17.7 0.00 0.00 0.00 67 1026.0
20260906080010 16 45 11.3 19.3 0.00 0.00 0.00 66 1025.8
20260906074008 16 270 11.3 20.9 0.00 0.00 0.00 68 1025.6
20260906073011 16 135 9.7 17.7 0.00 0.00 0.00 69 1025.6
20260906072007 16 135 9.7 19.3 0.00 0.00 0.00 72 1025.6
20260906070013 15 270 8.0 17.7 0.00 0.00 0.00 74 1025.2
20260906063010 14 270 4.8 8.0 0.00 0.00 0.00 78 1025.3
20260906062012 13 270 3.2 6.4 0.00 0.00 0.00 78 1025.3
20260906060014 13 135 8.0 11.3 0.00 0.00 0.00 80 1025.2
20260906055006 13 135 6.4 11.3 0.00 0.00 0.00 82 1025.1
20260906054008 12 270 6.4 9.7 0.00 0.00 0.00 84 1025.0
20260906053010 12 270 6.4 8.0 0.00 0.00 0.00 87 1024.9
20260906052009 11 270 4.8 6.4 0.00 0.00 0.00 87 1024.8
20260906051008 11 135 4.8 6.4 0.00 0.00 0.00 88 1024.9
20260906050008 11 135 4.8 8.0 0.00 0.00 0.00 89 1024.7
20260906045007 10 135 4.8 6.4 0.00 0.00 0.00 91 1024.7
20260906044006 10 135 3.2 6.4 0.00 0.03 0.00 91 1024.6
20260906043008 10 135 1.6 6.4 0.00 0.03 0.00 91 1024.4
20260906042007 10 135 3.2 4.8 0.00 0.05 0.00 91 1024.4
20260906040010 10 270 0.0 0.0 0.00 0.13 0.00 89 1024.2
20260906035006 10 270 1.6 4.8 0.00 0.13 0.00 88 1024.1
20260906033010 12 135 3.2 6.4 0.00 0.18 0.00 84 1023.7
20260906032010 12 135 4.8 9.7 0.00 0.18 0.00 83 1023.7
20260906030015 12 135 6.4 9.7 0.00 0.18 0.00 82 1023.4
20260906025009 12 135 8.0 14.5 0.00 0.18 0.00 81 1023.4
20260906023010 12 135 6.4 9.7 0.00 0.20 0.00 84 1023.2
20260906022009 12 135 6.4 8.0 0.00 0.20 0.00 82 1023.4
20260906021005 13 135 4.8 8.0 0.00 0.20 0.00 82 1023.3
20260906015009 13 135 4.8 6.4 0.00 0.20 0.00 81 1023.1
20260906014008 13 135 6.4 9.7 0.00 0.20 0.00 79 1022.9
20260906013012 13 135 6.4 9.7 0.00 0.20 0.00 80 1023.0
20260906012005 13 135 4.8 6.4 0.00 0.20 0.00 80 1022.8
20260906011008 13 135 1.6 6.4 0.00 0.20 0.00 80 1022.8
20260906010016 13 135 3.2 6.4 0.00 0.20 0.00 79 1022.8
20260906005009 13 135 6.4 9.7 0.00 0.20 0.00 78 1022.7
20260906004008 13 135 6.4 9.7 0.00 0.20 0.00 77 1022.6
20260906003010 13 135 4.8 8.0 0.00 0.20 0.00 78 1022.5
20260906001011 12 270 4.8 6.4 0.00 0.20 0.00 82 1022.6
20260905235012 14 135 4.8 6.4 0.00 0.20 0.00 76 1022.3
20260905233012 15 135 4.8 8.0 0.00 0.20 0.00 73 1022.2
20260905231006 14 135 6.4 9.7 0.00 0.20 0.00 78 1022.3
20260905225008 15 270 1.6 4.8 0.00 0.20 0.00 75 1022.0
20260905224008 15 180 3.2 6.4 0.00 0.20 0.00 73 1021.9
20260905223009 15 0 3.2 4.8 0.00 0.20 0.00 71 1021.9
20260905222010 15 270 3.2 6.4 0.00 0.20 0.00 71 1022.0
20260905221009 16 225 3.2 6.4 0.00 0.20 0.00 70 1021.9
20260905215008 16 135 3.2 6.4 0.00 0.20 0.20 68 1021.5